Вернуться в каталог

FENGYUN 1C DEB

АктивенSSO
NORAD 36986·DEBRIS·🇨🇳 China

Запущен May 10, 1999 с Taiyuan Satellite Launch Center

Loading…

Ближайшие Пролёты (ближайшие 24 часа)

TLE

СвежийSource: Space-Track

Эпоха: Sep 12, 2026, 16:22 UTC

1 36986U 99025EBS 26255.68234757  .00002160  00000-0  10716-2 0  9995
2 36986  99.1334 333.5018 0085848 189.0604 170.9024 14.16367449856206

Отслеживайте FENGYUN 1C DEB в реальном времени с AllMySat

Download on the App Store